This is the latest recevied weather packets stored in our database for station/object KF0JHJ. If no packets are shown the sender has not sent any weather packets the latest 10 day(s).
| Time | Temp. | Humidity | Pressure | Rain* | Wind** | Luminosity | Snow |
|---|---|---|---|---|---|---|---|
| 1777459599 | 1.67° C | 79% | 1016.3 hPa | - | - | 0 W/m² | - |
| 1777459296 | 1.67° C | 78% | 1016.5 hPa | - | - | 0 W/m² | - |
| 1777458994 | 1.67° C | 78% | 1016.5 hPa | - | - | 0 W/m² | - |
| 1777458691 | 1.67° C | 78% | 1016.3 hPa | - | - | 0 W/m² | - |
| 1777458387 | 1.67° C | 77% | 1016.3 hPa | - | - | 0 W/m² | - |
| 1777458083 | 1.67° C | 77% | 1016.6 hPa | - | - | 0 W/m² | - |
| 1777457779 | 2.22° C | 77% | 1016.5 hPa | - | - | 0 W/m² | - |
| 1777457479 | 2.22° C | 77% | 1016.1 hPa | - | - | 0 W/m² | - |
| 1777457175 | 2.22° C | 76% | 1016.1 hPa | - | - | 0 W/m² | - |
| 1777456871 | 2.78° C | 76% | 1016.1 hPa | - | - | 0 W/m² | - |
| 1777456566 | 2.22° C | 75% | 1016.1 hPa | - | - | 0 W/m² | - |
| 1777456261 | 2.78° C | 75% | 1016.1 hPa | - | - | 0 W/m² | - |
| 1777455957 | 2.78° C | 75% | 1016 hPa | - | - | 0 W/m² | - |
| 1777455655 | 2.78° C | 76% | 1015.8 hPa | - | - | 0 W/m² | - |
| 1777455351 | 2.78° C | 76% | 1016 hPa | - | - | 0 W/m² | - |
| 1777455049 | 2.78° C | 76% | 1016 hPa | - | - | 0 W/m² | - |
| 1777454745 | 2.78° C | 77% | 1016 hPa | - | - | 0 W/m² | - |
| 1777454441 | 2.78° C | 76% | 1015.8 hPa | - | - | 0 W/m² | - |
| 1777454137 | 2.78° C | 77% | 1015.8 hPa | - | - | 0 W/m² | - |
| 1777453834 | 2.78° C | 77% | 1015.9 hPa | - | - | 0 W/m² | - |
| 1777453531 | 3.33° C | 75% | 1015.8 hPa | - | - | 0 W/m² | - |
| 1777453228 | 3.33° C | 74% | 1015.8 hPa | - | - | 0 W/m² | - |
| 1777452925 | 3.89° C | 74% | 1015.8 hPa | - | - | 0 W/m² | - |
| 1777452622 | 3.33° C | 73% | 1015.7 hPa | - | - | 0 W/m² | - |
| 1777452318 | 3.89° C | 72% | 1015.7 hPa | - | - | 0 W/m² | - |
* Rain since midnight (hover to see other rain measurements)
** Current wind speed in m/s (hover to see current wind gust speed)